FW6192 Weather Reports


time (UTC)temp
F
wind
direction
speed
knots
gust
knots
rain 1hr
in
rain 24hr
in
rain mn
in
humidity
%
barometer
mb
20260503071613 50 227 0.9 5.2 0.00 0.00 0.00 57 1011.0
20260503054609 50 208 0.0 3.5 0.00 0.00 0.00 58 1012.0
20260503053053 51 188 0.9 4.3 0.00 0.00 0.00 57 1012.1
20260503051542 51 210 1.7 6.1 0.00 0.00 0.00 56 1012.1
20260503050030 52 205 1.7 8.7 0.00 0.00 0.00 55 1012.2
20260503044540 52 219 3.5 7.8 0.00 0.00 0.00 55 1012.3
20260503043108 53 204 2.6 9.6 0.00 0.00 0.00 54 1012.3
20260503041601 53 210 1.7 7.8 0.00 0.00 0.00 54 1012.6
20260503040045 53 180 2.6 5.2 0.00 0.00 0.00 55 1012.7
20260503034532 52 209 0.9 3.5 0.00 0.00 0.00 56 1013.0
20260503033021 52 175 0.0 1.7 0.00 0.00 0.00 57 1013.1
20260503031614 52 208 0.9 2.6 0.00 0.00 0.00 58 1013.4
20260503024547 51 146 0.0 1.7 0.00 0.00 0.00 62 1013.6
20260503023035 50 153 0.0 0.9 0.00 0.00 0.00 65 1013.6
20260503021524 50 151 0.0 0.9 0.00 0.00 0.00 62 1013.6
20260503020008 51 187 0.0 0.9 0.00 0.00 0.00 62 1013.6
20260503014609 51 217 0.0 0.9 0.00 0.00 0.00 58 1013.7
20260503013102 52 217 0.0 0.0 0.00 0.00 0.00 55 1013.6
20260503011619 54 217 0.0 0.0 0.00 0.00 0.00 50 1013.6
20260503010055 55 217 0.0 0.9 0.00 0.00 0.00 50 1013.7
20260503004546 56 257 0.0 1.7 0.00 0.00 0.00 49 1013.7
20260503003030 57 254 1.7 7.8 0.00 0.00 0.00 46 1013.7
20260503001509 58 251 2.6 6.1 0.00 0.00 0.00 45 1013.9
20260503000123 60 294 1.7 7.0 0.00 0.00 0.00 43 1013.9
20260502234605 60 286 2.6 6.1 0.00 0.00 0.00 41 1013.8
20260502233048 60 243 2.6 9.6 0.00 0.00 0.00 38 1014.0
20260502231539 60 267 2.6 9.6 0.00 0.00 0.00 39 1014.1
20260502230027 60 308 2.6 9.6 0.00 0.00 0.00 40 1014.4
20260502224519 60 294 1.7 9.6 0.00 0.00 0.00 42 1014.7
20260502223107 60 262 3.5 9.6 0.00 0.00 0.00 40 1014.7
20260502221613 60 261 4.3 11.3 0.00 0.00 0.00 40 1014.8
20260502220056 60 288 3.5 8.7 0.00 0.00 0.00 41 1014.8
20260502214537 60 294 3.5 8.7 0.00 0.00 0.00 39 1015.0
20260502213023 60 264 5.2 13.0 0.00 0.00 0.00 41 1015.1
20260502211611 60 247 5.2 9.6 0.00 0.00 0.00 41 1015.3
20260502210131 59 252 3.5 7.0 0.00 0.00 0.00 41 1015.5
20260502204550 60 263 2.6 7.8 0.00 0.00 0.00 44 1015.6
20260502203038 58 217 1.7 7.8 0.00 0.00 0.00 45 1015.8
20260502201527 58 307 4.3 9.6 0.00 0.00 0.00 41 1016.0
20260502200008 59 235 4.3 11.3 0.00 0.00 0.00 41 1016.3
20260502194608 59 205 5.2 11.3 0.00 0.00 0.00 43 1016.3
20260502193057 58 217 2.6 8.7 0.00 0.00 0.00 40 1016.8
20260502191556 57 271 4.3 8.7 0.00 0.00 0.00 43 1017.0
20260502190044 57 308 3.5 10.4 0.00 0.00 0.00 45 1017.2
20260502184524 57 285 3.5 7.8 0.00 0.00 0.00 42 1017.4
20260502183002 57 281 5.2 9.6 0.00 0.00 0.00 43 1017.6
20260502181605 56 271 2.6 9.6 0.00 0.00 0.00 45 1017.8
20260502170109 56 266 3.5 12.2 0.00 0.00 0.00 45 1018.5
20260502163055 55 300 3.5 10.4 0.00 0.00 0.00 46 1018.9
20260502161537 54 296 5.2 13.0 0.00 0.00 0.00 48 1019.2
20260502151604 53 283 2.6 7.8 0.00 0.00 0.00 52 1019.5
20260502140118 49 282 2.6 6.1 0.00 0.00 0.00 55 1020.3
20260502130109 43 226 1.7 6.1 0.00 0.00 0.00 66 1020.4
20260502123043 41 255 0.0 6.1 0.00 0.00 0.00 69 1020.4
20260502121537 40 250 0.0 3.5 0.00 0.00 0.00 71 1020.5
20260502114610 38 198 0.0 0.0 0.00 0.00 0.00 77 1020.5
20260502113105 37 198 0.0 0.0 0.00 0.00 0.00 78 1020.4
20260502111603 37 223 0.0 0.0 0.00 0.00 0.00 77 1020.4
20260502104544 37 220 0.0 0.0 0.00 0.00 0.00 80 1020.3
20260502103036 36 220 0.0 0.9 0.00 0.00 0.00 83 1020.4
20260502101528 35 143 0.0 0.9 0.00 0.00 0.00 90 1020.5
20260502091512 34 143 0.0 0.0 0.00 0.00 0.00 91 1020.4
20260502090117 33 143 0.0 0.0 0.00 0.00 0.00 91 1020.4